| time (UTC) | temp F | wind direction | speed MPH | gust MPH | rain 1hr in | rain 24hr in | rain mn in | humidity % | barometer mb |
| 20260504234706 | 54 | 289 | 0.0 | 2.0 | 0.00 | 0.00 | 0.00 | 81 | 1012.0 |
| 20260504234205 | 54 | 289 | 0.0 | 2.0 | 0.00 | 0.00 | 0.00 | 82 | 1012.0 |
| 20260504233705 | 54 | 289 | 0.0 | 2.0 | 0.00 | 0.00 | 0.00 | 82 | 1012.1 |
| 20260504233204 | 54 | 289 | 0.0 | 2.0 | 0.00 | 0.00 | 0.00 | 82 | 1012.1 |
| 20260504232710 | 54 | 292 | 0.0 | 1.0 | 0.00 | 0.00 | 0.00 | 82 | 1012.2 |
| 20260504232205 | 54 | 296 | 0.0 | 1.0 | 0.00 | 0.00 | 0.00 | 82 | 1012.1 |
| 20260504231705 | 54 | 296 | 0.0 | 2.0 | 0.00 | 0.00 | 0.00 | 82 | 1012.1 |
| 20260504231214 | 54 | 296 | 0.0 | 2.0 | 0.00 | 0.00 | 0.00 | 82 | 1012.2 |
| 20260504225705 | 55 | 296 | 0.0 | 1.0 | 0.00 | 0.00 | 0.00 | 82 | 1012.1 |
| 20260504225205 | 55 | 298 | 0.0 | 2.0 | 0.00 | 0.00 | 0.00 | 82 | 1012.1 |
| 20260504224704 | 55 | 298 | 0.0 | 2.0 | 0.00 | 0.00 | 0.00 | 82 | 1012.1 |
| 20260504224204 | 55 | 298 | 0.0 | 1.0 | 0.00 | 0.00 | 0.00 | 83 | 1012.0 |
| 20260504223706 | 55 | 298 | 0.0 | 1.0 | 0.00 | 0.00 | 0.00 | 83 | 1012.1 |
| 20260504222705 | 55 | 298 | 0.0 | 1.0 | 0.00 | 0.00 | 0.00 | 83 | 1012.1 |
| 20260504221704 | 56 | 298 | 0.0 | 1.0 | 0.00 | 0.00 | 0.00 | 83 | 1012.1 |
| 20260504221205 | 56 | 298 | 0.0 | 1.0 | 0.00 | 0.00 | 0.00 | 83 | 1012.0 |
| 20260504220705 | 56 | 298 | 0.0 | 1.0 | 0.00 | 0.00 | 0.00 | 83 | 1012.0 |
| 20260504215205 | 56 | 298 | 0.0 | 2.0 | 0.00 | 0.00 | 0.00 | 83 | 1012.1 |
| 20260504214705 | 56 | 298 | 0.0 | 2.0 | 0.00 | 0.00 | 0.00 | 83 | 1012.1 |
| 20260504214204 | 56 | 298 | 0.0 | 1.0 | 0.00 | 0.00 | 0.00 | 83 | 1012.1 |
| 20260504213704 | 56 | 299 | 0.0 | 1.0 | 0.00 | 0.00 | 0.00 | 83 | 1012.1 |
| 20260504212204 | 56 | 299 | 0.0 | 0.0 | 0.00 | 0.00 | 0.00 | 83 | 1012.1 |
| 20260504211704 | 56 | 299 | 0.0 | 1.0 | 0.00 | 0.00 | 0.00 | 83 | 1012.1 |
| 20260504211204 | 56 | 299 | 0.0 | 1.0 | 0.00 | 0.00 | 0.00 | 83 | 1012.1 |
| 20260504210704 | 56 | 299 | 0.0 | 1.0 | 0.00 | 0.00 | 0.00 | 83 | 1012.1 |
| 20260504210204 | 56 | 299 | 0.0 | 1.0 | 0.00 | 0.00 | 0.00 | 83 | 1012.2 |
| 20260504205704 | 56 | 299 | 0.0 | 1.0 | 0.00 | 0.00 | 0.00 | 83 | 1012.1 |
| 20260504205204 | 56 | 299 | 0.0 | 1.0 | 0.00 | 0.00 | 0.00 | 83 | 1012.1 |
| 20260504204704 | 56 | 299 | 0.0 | 1.0 | 0.00 | 0.00 | 0.00 | 83 | 1012.1 |
| 20260504204204 | 56 | 299 | 0.0 | 0.0 | 0.00 | 0.00 | 0.00 | 83 | 1012.1 |
| 20260504203704 | 56 | 299 | 0.0 | 1.0 | 0.00 | 0.00 | 0.00 | 83 | 1012.1 |
| 20260504203206 | 56 | 299 | 0.0 | 1.0 | 0.00 | 0.00 | 0.00 | 83 | 1012.2 |
| 20260504202704 | 56 | 299 | 0.0 | 1.0 | 0.00 | 0.00 | 0.00 | 83 | 1012.1 |
| 20260504202204 | 56 | 299 | 0.0 | 1.0 | 0.00 | 0.00 | 0.00 | 83 | 1012.2 |
| 20260504201704 | 57 | 299 | 0.0 | 1.0 | 0.00 | 0.00 | 0.00 | 83 | 1012.2 |
| 20260504201205 | 57 | 299 | 0.0 | 1.0 | 0.00 | 0.00 | 0.00 | 83 | 1012.2 |
| 20260504200204 | 57 | 299 | 0.0 | 1.0 | 0.00 | 0.00 | 0.00 | 83 | 1012.1 |
| 20260504195705 | 57 | 299 | 0.0 | 1.0 | 0.00 | 0.00 | 0.00 | 83 | 1012.1 |
| 20260504195204 | 57 | 299 | 0.0 | 1.0 | 0.00 | 0.00 | 0.00 | 82 | 1012.1 |
| 20260504194706 | 57 | 299 | 0.0 | 1.0 | 0.00 | 0.00 | 0.00 | 82 | 1012.0 |
| 20260504194205 | 57 | 299 | 0.0 | 1.0 | 0.00 | 0.00 | 0.00 | 82 | 1011.9 |
| 20260504193704 | 57 | 299 | 0.0 | 1.0 | 0.00 | 0.00 | 0.00 | 82 | 1011.8 |
| 20260504193204 | 58 | 299 | 0.0 | 2.0 | 0.00 | 0.00 | 0.00 | 82 | 1011.8 |
| 20260504192705 | 58 | 299 | 0.0 | 2.0 | 0.00 | 0.00 | 0.00 | 82 | 1011.8 |
| 20260504192204 | 58 | 299 | 0.0 | 1.0 | 0.00 | 0.00 | 0.00 | 81 | 1011.8 |
| 20260504191205 | 58 | 299 | 0.0 | 2.0 | 0.00 | 0.00 | 0.00 | 81 | 1011.7 |
| 20260504190204 | 59 | 300 | 0.0 | 2.0 | 0.00 | 0.00 | 0.00 | 79 | 1011.6 |
| 20260504185705 | 59 | 299 | 0.0 | 1.0 | 0.00 | 0.00 | 0.00 | 79 | 1011.5 |
| 20260504185204 | 59 | 299 | 0.0 | 2.0 | 0.00 | 0.00 | 0.00 | 78 | 1011.5 |
| 20260504184705 | 59 | 299 | 0.0 | 2.0 | 0.00 | 0.00 | 0.00 | 78 | 1011.5 |
| 20260504184204 | 59 | 299 | 0.0 | 2.0 | 0.00 | 0.00 | 0.00 | 78 | 1011.5 |
| 20260504183705 | 59 | 299 | 0.0 | 2.0 | 0.00 | 0.00 | 0.00 | 77 | 1011.5 |
| 20260504183208 | 60 | 299 | 0.0 | 2.0 | 0.00 | 0.00 | 0.00 | 76 | 1011.5 |
| 20260504182704 | 60 | 299 | 0.0 | 1.0 | 0.00 | 0.00 | 0.00 | 76 | 1011.4 |
| 20260504182204 | 60 | 299 | 0.0 | 3.0 | 0.00 | 0.00 | 0.00 | 76 | 1011.4 |
| 20260504181704 | 61 | 299 | 0.0 | 3.0 | 0.00 | 0.00 | 0.00 | 76 | 1011.3 |
| 20260504181204 | 61 | 299 | 0.0 | 3.0 | 0.00 | 0.00 | 0.00 | 76 | 1011.3 |
| 20260504180704 | 61 | 298 | 1.0 | 3.0 | 0.00 | 0.00 | 0.00 | 77 | 1011.3 |
| 20260504180203 | 61 | 296 | 1.0 | 2.0 | 0.00 | 0.00 | 0.00 | 77 | 1011.4 |
| 20260504175704 | 60 | 296 | 0.0 | 2.0 | 0.00 | 0.00 | 0.00 | 78 | 1011.4 |
| 20260504175204 | 60 | 296 | 0.0 | 2.0 | 0.00 | 0.00 | 0.00 | 78 | 1011.4 |
| 20260504174704 | 60 | 296 | 1.0 | 4.0 | 0.00 | 0.00 | 0.00 | 78 | 1011.4 |
| 20260504173704 | 60 | 296 | 0.0 | 4.0 | 0.00 | 0.00 | 0.00 | 77 | 1011.5 |
| 20260504173204 | 60 | 302 | 1.0 | 4.0 | 0.00 | 0.00 | 0.00 | 78 | 1011.4 |
| 20260504172704 | 60 | 302 | 1.0 | 4.0 | 0.00 | 0.00 | 0.00 | 78 | 1011.4 |
| 20260504172204 | 60 | 300 | 1.0 | 4.0 | 0.00 | 0.00 | 0.00 | 78 | 1011.5 |
| 20260504171703 | 60 | 299 | 1.0 | 3.0 | 0.00 | 0.00 | 0.00 | 77 | 1011.5 |
| 20260504171205 | 60 | 292 | 0.0 | 4.0 | 0.00 | 0.00 | 0.00 | 78 | 1011.5 |
| 20260504170705 | 60 | 290 | 0.0 | 4.0 | 0.00 | 0.00 | 0.00 | 77 | 1011.6 |
| 20260504170205 | 60 | 290 | 1.0 | 3.0 | 0.00 | 0.00 | 0.00 | 78 | 1011.6 |
| 20260504160204 | 62 | 237 | 0.0 | 2.0 | 0.00 | 0.00 | 0.00 | 78 | 1011.6 |
| 20260504150705 | 60 | 237 | 0.0 | 2.0 | 0.00 | 0.00 | 0.00 | 79 | 1011.7 |
| 20260504150205 | 60 | 237 | 0.0 | 2.0 | 0.00 | 0.00 | 0.00 | 79 | 1011.7 |
| 20260504141205 | 60 | 238 | 1.0 | 1.0 | 0.00 | 0.00 | 0.00 | 77 | 1011.8 |
| 20260504140204 | 60 | 238 | 0.0 | 1.0 | 0.00 | 0.00 | 0.00 | 78 | 1011.8 |
| 20260504130704 | 60 | 250 | 0.0 | 2.0 | 0.00 | 0.00 | 0.00 | 78 | 1011.9 |
| 20260504130204 | 60 | 250 | 0.0 | 2.0 | 0.00 | 0.00 | 0.00 | 78 | 1011.9 |
| 20260504120204 | 59 | 250 | 0.0 | 2.0 | 0.00 | 0.00 | 0.00 | 81 | 1011.9 |
| 20260504110704 | 58 | 250 | 0.0 | 2.0 | 0.00 | 0.00 | 0.00 | 82 | 1012.1 |
| 20260504110204 | 57 | 250 | 0.0 | 2.0 | 0.00 | 0.00 | 0.00 | 82 | 1012.1 |
| 20260504100204 | 57 | 248 | 0.0 | 1.0 | 0.00 | 0.00 | 0.00 | 82 | 1012.0 |
| 20260504081707 | 55 | 245 | 1.0 | 3.0 | 0.00 | 0.00 | 0.00 | 83 | 1011.6 |
| 20260504081204 | 55 | 245 | 1.0 | 3.0 | 0.00 | 0.00 | 0.00 | 83 | 1011.6 |
| 20260504080704 | 55 | 245 | 1.0 | 2.0 | 0.00 | 0.00 | 0.00 | 83 | 1011.7 |
| 20260504080212 | 55 | 245 | 0.0 | 2.0 | 0.00 | 0.00 | 0.00 | 83 | 1011.6 |
| 20260504070205 | 55 | 243 | 1.0 | 3.0 | 0.00 | 0.00 | 0.00 | 82 | 1010.8 |
| 20260504060205 | 56 | 244 | 0.0 | 1.0 | 0.00 | 0.00 | 0.00 | 82 | 1010.2 |
| 20260504050714 | 56 | 227 | 0.0 | 2.0 | 0.00 | 0.00 | 0.00 | 82 | 1009.7 |
| 20260504050204 | 56 | 227 | 0.0 | 2.0 | 0.00 | 0.00 | 0.00 | 82 | 1009.6 |
| 20260504045704 | 56 | 227 | 0.0 | 2.0 | 0.00 | 0.00 | 0.00 | 82 | 1009.6 |
| 20260504045204 | 55 | 227 | 0.0 | 2.0 | 0.00 | 0.00 | 0.00 | 82 | 1009.4 |
| 20260504044705 | 55 | 227 | 0.0 | 2.0 | 0.00 | 0.00 | 0.00 | 82 | 1009.4 |
| 20260504044204 | 55 | 227 | 0.0 | 2.0 | 0.00 | 0.00 | 0.00 | 82 | 1009.5 |
| 20260504043704 | 55 | 227 | 0.0 | 2.0 | 0.00 | 0.00 | 0.00 | 83 | 1009.4 |
| 20260504043204 | 55 | 227 | 0.0 | 2.0 | 0.00 | 0.00 | 0.00 | 83 | 1009.4 |
| 20260504042705 | 55 | 227 | 0.0 | 2.0 | 0.00 | 0.00 | 0.00 | 83 | 1009.4 |
| 20260504042205 | 55 | 227 | 0.0 | 1.0 | 0.00 | 0.00 | 0.00 | 83 | 1009.4 |
| 20260504040704 | 55 | 216 | 0.0 | 1.0 | 0.00 | 0.00 | 0.00 | 83 | 1009.4 |
| 20260504040204 | 55 | 216 | 0.0 | 1.0 | 0.00 | 0.00 | 0.00 | 83 | 1009.4 |
| 20260504035704 | 55 | 216 | 0.0 | 2.0 | 0.00 | 0.00 | 0.00 | 83 | 1009.4 |
| 20260504035204 | 55 | 216 | 0.0 | 2.0 | 0.00 | 0.00 | 0.00 | 83 | 1009.4 |
| 20260504034704 | 55 | 216 | 0.0 | 2.0 | 0.00 | 0.00 | 0.00 | 83 | 1009.4 |
| 20260504034205 | 55 | 216 | 1.0 | 2.0 | 0.00 | 0.00 | 0.00 | 83 | 1009.5 |
| 20260504033704 | 55 | 216 | 0.0 | 2.0 | 0.00 | 0.00 | 0.00 | 83 | 1009.5 |
| 20260504033204 | 56 | 216 | 0.0 | 3.0 | 0.00 | 0.00 | 0.00 | 83 | 1009.6 |
| 20260504032704 | 56 | 216 | 0.0 | 3.0 | 0.00 | 0.00 | 0.00 | 83 | 1009.5 |
| 20260504031704 | 56 | 216 | 0.0 | 1.0 | 0.00 | 0.00 | 0.00 | 83 | 1009.5 |
| 20260504031204 | 56 | 216 | 0.0 | 1.0 | 0.00 | 0.00 | 0.00 | 83 | 1009.4 |
| 20260504030704 | 56 | 216 | 0.0 | 2.0 | 0.00 | 0.00 | 0.00 | 83 | 1009.4 |
| 20260504030204 | 56 | 216 | 0.0 | 2.0 | 0.00 | 0.00 | 0.00 | 83 | 1009.3 |
| 20260504025704 | 56 | 216 | 0.0 | 2.0 | 0.00 | 0.00 | 0.00 | 83 | 1009.3 |
| 20260504025205 | 56 | 216 | 0.0 | 3.0 | 0.00 | 0.00 | 0.00 | 83 | 1009.3 |
| 20260504024704 | 56 | 216 | 0.0 | 3.0 | 0.00 | 0.00 | 0.00 | 83 | 1009.2 |
| 20260504024204 | 56 | 216 | 0.0 | 3.0 | 0.00 | 0.00 | 0.00 | 83 | 1009.2 |
| 20260504023704 | 56 | 216 | 0.0 | 3.0 | 0.00 | 0.00 | 0.00 | 83 | 1009.2 |
| 20260504023205 | 56 | 217 | 1.0 | 3.0 | 0.00 | 0.00 | 0.00 | 83 | 1009.2 |
| 20260504022204 | 56 | 217 | 1.0 | 1.0 | 0.00 | 0.00 | 0.00 | 83 | 1009.1 |
| 20260504021704 | 56 | 217 | 0.0 | 1.0 | 0.00 | 0.00 | 0.00 | 83 | 1009.1 |
| 20260504021204 | 56 | 217 | 0.0 | 1.0 | 0.00 | 0.00 | 0.00 | 83 | 1009.1 |
| 20260504020705 | 56 | 217 | 0.0 | 1.0 | 0.00 | 0.00 | 0.00 | 83 | 1009.1 |
| 20260504015704 | 56 | 217 | 0.0 | 1.0 | 0.00 | 0.00 | 0.00 | 83 | 1009.2 |
| 20260504015205 | 56 | 217 | 0.0 | 2.0 | 0.00 | 0.00 | 0.00 | 83 | 1009.1 |
| 20260504014704 | 56 | 217 | 0.0 | 3.0 | 0.00 | 0.00 | 0.00 | 83 | 1009.1 |
| 20260504014205 | 56 | 217 | 0.0 | 4.0 | 0.00 | 0.00 | 0.00 | 83 | 1009.1 |
| 20260504013704 | 56 | 219 | 0.0 | 4.0 | 0.00 | 0.00 | 0.00 | 83 | 1009.1 |
| 20260504013204 | 56 | 219 | 0.0 | 4.0 | 0.00 | 0.00 | 0.00 | 83 | 1009.1 |
| 20260504012705 | 56 | 217 | 1.0 | 4.0 | 0.00 | 0.00 | 0.00 | 83 | 1009.1 |
| 20260504012205 | 57 | 217 | 1.0 | 4.0 | 0.00 | 0.00 | 0.00 | 83 | 1009.1 |
| 20260504011705 | 57 | 217 | 1.0 | 3.0 | 0.00 | 0.00 | 0.00 | 83 | 1009.1 |
| 20260504011205 | 57 | 216 | 1.0 | 3.0 | 0.00 | 0.00 | 0.00 | 83 | 1009.3 |
| 20260504010704 | 57 | 216 | 1.0 | 4.0 | 0.00 | 0.00 | 0.00 | 83 | 1009.2 |
| 20260504010204 | 57 | 216 | 1.0 | 5.0 | 0.00 | 0.00 | 0.00 | 82 | 1009.2 |
| 20260504005704 | 57 | 216 | 1.0 | 6.0 | 0.00 | 0.00 | 0.00 | 82 | 1009.1 |
| 20260504005204 | 57 | 228 | 1.0 | 6.0 | 0.00 | 0.00 | 0.00 | 82 | 1009.1 |
| 20260504004706 | 57 | 233 | 1.0 | 6.0 | 0.00 | 0.00 | 0.00 | 82 | 1009.0 |
| 20260504004207 | 57 | 217 | 2.0 | 4.0 | 0.00 | 0.00 | 0.00 | 82 | 1009.1 |
| 20260504003704 | 57 | 216 | 0.0 | 4.0 | 0.00 | 0.00 | 0.00 | 82 | 1009.0 |
| 20260504003204 | 57 | 216 | 1.0 | 4.0 | 0.00 | 0.00 | 0.00 | 82 | 1008.9 |
| 20260504002704 | 57 | 216 | 1.0 | 3.0 | 0.00 | 0.00 | 0.00 | 82 | 1008.7 |
| 20260504002205 | 57 | 216 | 1.0 | 4.0 | 0.00 | 0.00 | 0.00 | 82 | 1008.7 |
| 20260504001704 | 57 | 216 | 1.0 | 4.0 | 0.00 | 0.00 | 0.00 | 82 | 1008.8 |
| 20260504001204 | 57 | 214 | 1.0 | 3.0 | 0.00 | 0.00 | 0.00 | 82 | 1008.8 |
| 20260504000704 | 57 | 212 | 0.0 | 3.0 | 0.00 | 0.00 | 0.00 | 82 | 1008.9 |
| 20260504000204 | 58 | 212 | 0.0 | 3.0 | 0.00 | 0.00 | 0.00 | 81 | 1008.9 |
| 20260503235709 | 58 | 212 | 1.0 | 3.0 | 0.00 | 0.00 | 0.00 | 81 | 1008.8 |
| 20260503235204 | 58 | 240 | 1.0 | 5.0 | 0.00 | 0.00 | 0.00 | 81 | 1008.8 |